Hourly Weather Roundup
Issued by NWS Central Illinois

Home | Current Version | Previous Version | Text Only | Print | Product List | Glossary On
Versions: 1 2 3 4 5 6 7 8 9 10 11 12 13 14 15 16 17 18 19 20 21 22 23 24 25 26 27 28 29 30 31 32 33 34 35 36 37 38 39 40 41 42 43 44 45 46 47 48 49 50
000
NZUS43 KILX 111710
HWRILX

AREA WEATHER ROUNDUP
NATIONAL WEATHER SERVICE, LINCOLN IL
1100 AM CST THU FEB 11 2016


CITY           SKY/WX    TMP DP  RH WIND       PRES   REMARKS
BLOOMINGTON    SUNNY     19   4  52 VRB6      30.34S WCI  11
CHAMPAIGN      SUNNY     20   3  48 N7        30.33S WCI  11
DANVILLE       SUNNY     18   6  60 N3        30.31S
DECATUR        SUNNY     20   4  50 VRB5      30.35S WCI  13
EFFINGHAM      SUNNY     23  11  60 NW7       30.36S WCI  14
FLORA          SUNNY     27   9  47 NE6       30.34F WCI  20
GALESBURG      SUNNY     18   4  53 CALM      30.36S
JACKSONVILLE   SUNNY     20   6  55 CALM      30.38R
LACON          SUNNY     18   1  46 CALM      30.36S
LAWRENCEVILLE  SUNNY     25   9  50 VRB6      30.34S WCI  18
LITCHFIELD     SUNNY     20   6  56 N6        30.34S WCI  12
$$


CITY           SKY/WX    TMP DP  RH WIND       PRES   REMARKS
LINCOLN        SUNNY     20   6  54 CALM      30.37R
MACOMB         SUNNY     18   5  56 CALM      30.39R
MATTOON        SUNNY     18   2  49 N7        30.33S WCI   9
MT CARMEL AP   SUNNY     27   7  43 NE3       30.34S
OLNEY-NOBLE AP SUNNY     27  10  50 NW8       30.34S WCI  18
PARIS          SUNNY     19   7  61 NW5       30.34F WCI  12
PEORIA         SUNNY     20   1  43 VRB3      30.37R
PONTIAC        SUNNY     18   5  56 N3        30.36S
RANTOUL        SUNNY     20   4  51 N5        30.34S WCI  13
ROBINSON       SUNNY     21   8  55 NE5       30.36S WCI  15
SPRINGFIELD    SUNNY     22   5  48 NE7       30.36S WCI  13
TAYLORVILLE    SUNNY     21   5  49 NE7       30.36R WCI  13
$$

...REGIONAL REPORTS...


CITY           SKY/WX    TMP DP  RH WIND       PRES   REMARKS
CHICAGO O`HARE MOSUNNY   15   0  51 N5        30.32S WCI   8
KANKAKEE       SUNNY     19   1  46 N6        30.34S WCI  11
MOLINE         SUNNY     18   0  45 CALM      30.37S
MOUNT STERLING SUNNY     17   4  57 CALM      30.36R
MOUNT VERNON   CLOUDY    25  12  58 N7        30.34S WCI  17
PITTSFIELD     SUNNY     20   6  54 CALM      30.37R
QUINCY         SUNNY     18   4  54 N5        30.36R WCI  11
ROCKFORD       SUNNY     16   2  54 N6        30.36R WCI   7
$$


CITY           SKY/WX    TMP DP  RH WIND       PRES   REMARKS
BURLINGTON     SUNNY     18   4  54 CALM      30.36S
CEDAR RAPIDS   SUNNY     16   4  59 VRB5      30.34S WCI   9
DES MOINES     MOSUNNY   14   0  53 S3        30.35R
KIRKSVILLE     SUNNY     18   3  52 E6        30.33F WCI  10
OTTUMWA        SUNNY     15   6  67 E6        30.34F WCI   6
ST LOUIS       PTSUNNY   25  10  53 CALM      30.35R
$$


CITY           SKY/WX    TMP DP  RH WIND       PRES   REMARKS
TERRE HAUTE    SUNNY     19   3  49 NW6       30.34R WCI  11
EVANSVILLE     CLOUDY    27  13  55 N7        30.34S WCI  19
INDIANAPOLIS   MOSUNNY   21   5  50 CALM      30.29S
LAFAYETTE      SUNNY     20   5  52 N9        30.32R WCI   9
MADISON        MOSUNNY   11  -2  56 NW7       30.32R WCI   0
MILWAUKEE      MOSUNNY   14  -1  51 W9        30.31R WCI   2
$$





USA.gov is the U.S. government's official web portal to all federal, state and local government web resources and services.